WAT3911 KSAN-KAUS

Flight info

Callsign WAT3911
Flight time 2h 11m
Altitude 45000
Route ZZOOO4 GBN SKTTR Q4 ELP LOWGO DILLO LAIKS4
Aircraft C700/M-SBDGHM1RWXY/LB2

Departure

Time 2026-05-06 13:05
Airport San Diego International Airport (KSAN)

Arrival

Time 2026-05-06 15:16
Airport Austin Bergstrom International Airport (KAUS)
Time Latitude Longitude Altitude Speed Heading
2026-05-06 12:56 32.73344 -117.17873 21 ft 0 kts 185°
2026-05-06 13:03 32.73335 -117.17899 21 ft 7 kts 292°
2026-05-06 13:03 32.73317 -117.17955 24 ft 12 kts 178°
2026-05-06 13:03 32.73275 -117.17835 20 ft 21 kts 106°
2026-05-06 13:03 32.73211 -117.17664 22 ft 24 kts 147°
2026-05-06 13:04 32.73085 -117.17540 21 ft 17 kts 149°
2026-05-06 13:04 32.73024 -117.17594 20 ft 18 kts 284°
2026-05-06 13:04 32.73110 -117.17951 16 ft 86 kts 287°
2026-05-06 13:04 32.73361 -117.18966 133 ft 160 kts 287°
2026-05-06 13:05 32.73744 -117.20370 854 ft 187 kts 288°
2026-05-06 13:05 32.74141 -117.21899 1805 ft 200 kts 284°
2026-05-06 13:05 32.74461 -117.23532 3085 ft 206 kts 285°
2026-05-06 13:05 32.74861 -117.25207 4400 ft 220 kts 287°
2026-05-06 13:06 32.75311 -117.27037 5738 ft 236 kts 287°
2026-05-06 13:06 32.75766 -117.28931 7337 ft 241 kts 287°
2026-05-06 13:06 32.76237 -117.30879 8813 ft 250 kts 287°
2026-05-06 13:06 32.76499 -117.32950 10235 ft 261 kts 265°
2026-05-06 13:07 32.75749 -117.34923 11636 ft 273 kts 229°
2026-05-06 13:07 32.74112 -117.36118 12901 ft 285 kts 194°
2026-05-06 13:07 32.72142 -117.36066 14146 ft 288 kts 159°
2026-05-06 13:07 32.70502 -117.34762 15416 ft 286 kts 128°
2026-05-06 13:08 32.69351 -117.32820 16651 ft 290 kts 119°
2026-05-06 13:08 32.68193 -117.30819 17859 ft 298 kts 124°
2026-05-06 13:08 32.66794 -117.28954 19024 ft 307 kts 132°
2026-05-06 13:08 32.65232 -117.27174 20096 ft 313 kts 131°
2026-05-06 13:09 32.63964 -117.25079 21062 ft 315 kts 115°
2026-05-06 13:09 32.63097 -117.22664 21771 ft 327 kts 103°
2026-05-06 13:09 32.62710 -117.19908 22066 ft 352 kts 92°
2026-05-06 13:09 32.62459 -117.16913 22483 ft 374 kts 93°
2026-05-06 13:10 32.62181 -117.13836 23469 ft 377 kts 92°
2026-05-06 13:10 32.62251 -117.10715 24313 ft 381 kts 81°
2026-05-06 13:10 32.62803 -117.07662 25136 ft 385 kts 70°
2026-05-06 13:10 32.63761 -117.04673 25970 ft 391 kts 66°
2026-05-06 13:11 32.64749 -117.01651 26766 ft 396 kts 67°
2026-05-06 13:11 32.65743 -116.98571 27515 ft 403 kts 68°
2026-05-06 13:11 32.66486 -116.95329 28246 ft 411 kts 79°
2026-05-06 13:11 32.66732 -116.91922 28966 ft 418 kts 87°
2026-05-06 13:12 32.66802 -116.88447 29670 ft 424 kts 87°
2026-05-06 13:12 32.66891 -116.84929 30356 ft 429 kts 87°
2026-05-06 13:12 32.66978 -116.81361 30982 ft 436 kts 87°
2026-05-06 13:12 32.67060 -116.77738 31557 ft 442 kts 88°
2026-05-06 13:13 32.67106 -116.74065 32134 ft 448 kts 90°
2026-05-06 13:13 32.67034 -116.70340 32671 ft 454 kts 91°
2026-05-06 13:13 32.66970 -116.66565 33187 ft 460 kts 90°
2026-05-06 13:13 32.66920 -116.62743 33703 ft 466 kts 90°
2026-05-06 13:14 32.66863 -116.58874 34193 ft 472 kts 91°
2026-05-06 13:14 32.66792 -116.54954 34671 ft 476 kts 91°
2026-05-06 13:14 32.66723 -116.51009 35094 ft 482 kts 91°
2026-05-06 13:14 32.66660 -116.47050 35518 ft 488 kts 91°
2026-05-06 13:15 32.66607 -116.43008 35986 ft 491 kts 89°
2026-05-06 13:15 32.66894 -116.38970 36536 ft 492 kts 83°
2026-05-06 13:15 32.67286 -116.34928 37025 ft 494 kts 84°
2026-05-06 13:15 32.67649 -116.30868 37494 ft 495 kts 84°
2026-05-06 13:16 32.68004 -116.26797 37966 ft 496 kts 84°
2026-05-06 13:16 32.68374 -116.22723 38412 ft 497 kts 84°
2026-05-06 13:16 32.68747 -116.18643 38819 ft 497 kts 85°
2026-05-06 13:16 32.69112 -116.14569 39244 ft 497 kts 85°
2026-05-06 13:17 32.69473 -116.10473 39622 ft 498 kts 85°
2026-05-06 13:17 32.69836 -116.06381 39966 ft 499 kts 85°
2026-05-06 13:17 32.70200 -116.02298 40326 ft 498 kts 85°
2026-05-06 13:17 32.70573 -115.98210 40661 ft 498 kts 84°
2026-05-06 13:18 32.70965 -115.94103 40840 ft 502 kts 85°
2026-05-06 13:18 32.71350 -115.89967 41005 ft 505 kts 85°
2026-05-06 13:18 32.71726 -115.85821 41310 ft 505 kts 85°
2026-05-06 13:18 32.72104 -115.81674 41575 ft 505 kts 85°
2026-05-06 13:19 32.72487 -115.77523 41833 ft 506 kts 85°
2026-05-06 13:19 32.72866 -115.73364 42061 ft 507 kts 85°
2026-05-06 13:19 32.73243 -115.69189 42311 ft 507 kts 85°
2026-05-06 13:19 32.73619 -115.65021 42563 ft 508 kts 85°
2026-05-06 13:20 32.73989 -115.60896 42801 ft 508 kts 85°
2026-05-06 13:20 32.74365 -115.56723 43040 ft 508 kts 85°
2026-05-06 13:20 32.74737 -115.52548 43270 ft 508 kts 85°
2026-05-06 13:20 32.74973 -115.48360 43452 ft 508 kts 90°
2026-05-06 13:21 32.75054 -115.44160 43668 ft 509 kts 90°
2026-05-06 13:21 32.75137 -115.39957 43872 ft 509 kts 90°
2026-05-06 13:21 32.75251 -115.35752 44067 ft 510 kts 90°
2026-05-06 13:21 32.75363 -115.31539 44240 ft 510 kts 90°
2026-05-06 13:22 32.75452 -115.27323 44450 ft 511 kts 90°
2026-05-06 13:22 32.75541 -115.23106 44647 ft 511 kts 90°
2026-05-06 13:22 32.75640 -115.18888 44846 ft 511 kts 90°
2026-05-06 13:22 32.75737 -115.14669 45026 ft 511 kts 90°
2026-05-06 13:23 32.75827 -115.10428 45028 ft 516 kts 90°
2026-05-06 13:23 32.76009 -115.01827 45031 ft 524 kts 90°
2026-05-06 13:24 32.76189 -114.93156 45039 ft 526 kts 90°
2026-05-06 13:24 32.76361 -114.84469 45036 ft 527 kts 90°
2026-05-06 13:25 32.76529 -114.75764 45035 ft 527 kts 90°
2026-05-06 13:25 32.76690 -114.67109 45037 ft 527 kts 91°
2026-05-06 13:26 32.76845 -114.58385 45038 ft 529 kts 91°
2026-05-06 13:26 32.76961 -114.49631 45037 ft 529 kts 91°
2026-05-06 13:27 32.77085 -114.40913 45037 ft 528 kts 91°
2026-05-06 13:27 32.77194 -114.32177 45036 ft 528 kts 91°
2026-05-06 13:28 32.77303 -114.23440 45036 ft 529 kts 91°
2026-05-06 13:28 32.77403 -114.14694 45037 ft 530 kts 91°
2026-05-06 13:29 32.77482 -114.07411 45038 ft 531 kts 91°
2026-05-06 13:29 32.77582 -113.98640 45036 ft 531 kts 90°
2026-05-06 13:30 32.78858 -113.88504 45033 ft 536 kts 82°
2026-05-06 13:30 32.79880 -113.81189 45036 ft 536 kts 82°
2026-05-06 13:31 32.81144 -113.72451 45037 ft 536 kts 82°
2026-05-06 13:31 32.82366 -113.63779 45038 ft 535 kts 82°
2026-05-06 13:32 32.83604 -113.55053 45038 ft 535 kts 82°
2026-05-06 13:32 32.84829 -113.46318 45038 ft 535 kts 82°
2026-05-06 13:33 32.86049 -113.37597 45038 ft 534 kts 82°
2026-05-06 13:33 32.87259 -113.28896 45037 ft 533 kts 82°
2026-05-06 13:34 32.88465 -113.20187 45039 ft 532 kts 82°
2026-05-06 13:34 32.89660 -113.11496 45037 ft 532 kts 82°
2026-05-06 13:35 32.90855 -113.02772 45038 ft 535 kts 82°
2026-05-06 13:35 32.92037 -112.94080 45041 ft 536 kts 82°
2026-05-06 13:36 32.93227 -112.85305 45045 ft 537 kts 82°
2026-05-06 13:36 32.94408 -112.76532 45046 ft 537 kts 83°
2026-05-06 13:37 32.95070 -112.67699 45042 ft 533 kts 96°
2026-05-06 13:37 32.93788 -112.59106 45045 ft 526 kts 109°
2026-05-06 13:38 32.91908 -112.50685 45052 ft 527 kts 109°
2026-05-06 13:38 32.90033 -112.42266 45053 ft 526 kts 109°
2026-05-06 13:39 32.88148 -112.33856 45071 ft 526 kts 109°
2026-05-06 13:39 32.86255 -112.25427 45063 ft 527 kts 110°
2026-05-06 13:40 32.84361 -112.17031 45064 ft 526 kts 110°
2026-05-06 13:40 32.82462 -112.08633 45068 ft 526 kts 110°
2026-05-06 13:41 32.80566 -112.00285 45077 ft 526 kts 110°
2026-05-06 13:41 32.78652 -111.91881 45076 ft 528 kts 110°
2026-05-06 13:42 32.76723 -111.83434 45085 ft 529 kts 110°
2026-05-06 13:42 32.74790 -111.75004 45089 ft 529 kts 110°
2026-05-06 13:43 32.72850 -111.66572 45086 ft 529 kts 110°
2026-05-06 13:43 32.70913 -111.58182 45092 ft 530 kts 110°
2026-05-06 13:44 32.68958 -111.49740 45091 ft 530 kts 110°
2026-05-06 13:44 32.66994 -111.41288 45090 ft 530 kts 110°
2026-05-06 13:45 32.65031 -111.32866 45089 ft 529 kts 111°
2026-05-06 13:45 32.62075 -111.20241 45090 ft 529 kts 111°
2026-05-06 13:46 32.60111 -111.11885 45097 ft 528 kts 111°
2026-05-06 13:46 32.58118 -111.03432 45096 ft 529 kts 111°
2026-05-06 13:47 32.56134 -110.95046 45096 ft 529 kts 111°
2026-05-06 13:47 32.54151 -110.86698 45114 ft 530 kts 111°
2026-05-06 13:48 32.52148 -110.78285 45132 ft 531 kts 111°
2026-05-06 13:48 32.50138 -110.69865 45143 ft 529 kts 111°
2026-05-06 13:49 32.48127 -110.61478 45140 ft 529 kts 111°
2026-05-06 13:49 32.46112 -110.53096 45139 ft 530 kts 111°
2026-05-06 13:50 32.44084 -110.44690 45141 ft 531 kts 111°
2026-05-06 13:50 32.42059 -110.36317 45136 ft 533 kts 111°
2026-05-06 13:51 32.40010 -110.27886 45136 ft 533 kts 112°
2026-05-06 13:51 32.37962 -110.19462 45137 ft 532 kts 111°
2026-05-06 13:52 32.35902 -110.11042 45139 ft 533 kts 111°
2026-05-06 13:52 32.33842 -110.02627 45136 ft 531 kts 112°
2026-05-06 13:53 32.31773 -109.94234 45134 ft 533 kts 112°
2026-05-06 13:53 32.29717 -109.85825 45133 ft 534 kts 110°
2026-05-06 13:54 32.28515 -109.77089 45133 ft 540 kts 103°
2026-05-06 13:54 32.27426 -109.68311 45134 ft 539 kts 103°
2026-05-06 13:55 32.26386 -109.59547 45127 ft 539 kts 103°
2026-05-06 13:55 32.25310 -109.50852 45126 ft 538 kts 103°
2026-05-06 13:56 32.24243 -109.42089 45126 ft 540 kts 103°
2026-05-06 13:56 32.23161 -109.33314 45128 ft 539 kts 103°
2026-05-06 13:57 32.22071 -109.24536 45128 ft 540 kts 103°
2026-05-06 13:57 32.20976 -109.15731 45129 ft 543 kts 103°
2026-05-06 13:58 32.19868 -109.06946 45133 ft 544 kts 104°
2026-05-06 13:58 32.18758 -108.98107 45133 ft 544 kts 104°
2026-05-06 13:59 32.17632 -108.89272 45133 ft 544 kts 104°
2026-05-06 13:59 32.16508 -108.80437 45132 ft 544 kts 104°
2026-05-06 14:00 32.15371 -108.71599 45129 ft 545 kts 104°
2026-05-06 14:00 32.14227 -108.62730 45130 ft 548 kts 104°
2026-05-06 14:01 32.13070 -108.53826 45132 ft 550 kts 104°
2026-05-06 14:01 32.11907 -108.44912 45135 ft 549 kts 105°
2026-05-06 14:02 32.10739 -108.36017 45134 ft 548 kts 105°
2026-05-06 14:02 32.09567 -108.27138 45132 ft 547 kts 105°
2026-05-06 14:03 32.08392 -108.18299 45125 ft 550 kts 105°
2026-05-06 14:03 32.07203 -108.09375 45119 ft 551 kts 105°
2026-05-06 14:04 32.06003 -108.00444 45121 ft 552 kts 105°
2026-05-06 14:04 32.04798 -107.91510 45119 ft 552 kts 105°
2026-05-06 14:05 32.03586 -107.82579 45120 ft 551 kts 105°
2026-05-06 14:05 32.02370 -107.73673 45119 ft 550 kts 105°
2026-05-06 14:06 32.01155 -107.64818 45108 ft 550 kts 105°
2026-05-06 14:06 31.99931 -107.55934 45107 ft 549 kts 105°
2026-05-06 14:07 31.98701 -107.47061 45104 ft 548 kts 105°
2026-05-06 14:07 31.97460 -107.38171 45105 ft 551 kts 105°
2026-05-06 14:08 31.96219 -107.29309 45108 ft 552 kts 106°
2026-05-06 14:08 31.94958 -107.20347 45111 ft 551 kts 106°
2026-05-06 14:09 31.93702 -107.11495 45110 ft 551 kts 106°
2026-05-06 14:09 31.92438 -107.02592 45110 ft 550 kts 106°
2026-05-06 14:10 31.91163 -106.93692 45111 ft 551 kts 106°
2026-05-06 14:10 31.89886 -106.84797 45110 ft 551 kts 106°
2026-05-06 14:11 31.88599 -106.75903 45109 ft 550 kts 106°
2026-05-06 14:11 31.87310 -106.67020 45107 ft 549 kts 107°
2026-05-06 14:12 31.86011 -106.58143 45107 ft 552 kts 107°
2026-05-06 14:12 31.84705 -106.49226 45110 ft 554 kts 107°
2026-05-06 14:13 31.83398 -106.40357 45099 ft 553 kts 107°
2026-05-06 14:13 31.82076 -106.31449 45089 ft 553 kts 107°
2026-05-06 14:14 31.81176 -106.22395 45088 ft 560 kts 100°
2026-05-06 14:14 31.80495 -106.13263 45091 ft 560 kts 101°
2026-05-06 14:15 31.79823 -106.04149 45094 ft 560 kts 101°
2026-05-06 14:15 31.79140 -105.95054 45089 ft 557 kts 101°
2026-05-06 14:16 31.78565 -105.87512 45087 ft 556 kts 101°
2026-05-06 14:16 31.77765 -105.76991 45094 ft 557 kts 101°
2026-05-06 14:17 31.77065 -105.67913 45084 ft 559 kts 101°
2026-05-06 14:17 31.76473 -105.60294 45087 ft 558 kts 101°
2026-05-06 14:18 31.75761 -105.51226 45090 ft 557 kts 101°
2026-05-06 14:18 31.75045 -105.42177 45077 ft 556 kts 101°
2026-05-06 14:19 31.74325 -105.33183 45077 ft 557 kts 101°
2026-05-06 14:19 31.73595 -105.24116 45078 ft 558 kts 101°
2026-05-06 14:20 31.72856 -105.15037 45079 ft 558 kts 101°
2026-05-06 14:20 31.72114 -105.05977 45080 ft 557 kts 101°
2026-05-06 14:21 31.71363 -104.96909 45072 ft 558 kts 101°
2026-05-06 14:21 31.70607 -104.87852 45077 ft 557 kts 101°
2026-05-06 14:22 31.69844 -104.78796 45077 ft 556 kts 101°
2026-05-06 14:22 31.69077 -104.69755 45078 ft 556 kts 101°
2026-05-06 14:23 31.68301 -104.60713 45070 ft 558 kts 101°
2026-05-06 14:23 31.67523 -104.51707 45064 ft 558 kts 101°
2026-05-06 14:24 31.66734 -104.42635 45062 ft 558 kts 102°
2026-05-06 14:24 31.65940 -104.33586 45061 ft 557 kts 102°
2026-05-06 14:25 31.65136 -104.24521 45059 ft 559 kts 102°
2026-05-06 14:25 31.64325 -104.15434 45055 ft 561 kts 102°
2026-05-06 14:26 31.63508 -104.06343 45043 ft 559 kts 102°
2026-05-06 14:26 31.62685 -103.97279 45042 ft 557 kts 102°
2026-05-06 14:27 31.61861 -103.88254 45040 ft 555 kts 102°
2026-05-06 14:27 31.61034 -103.79298 45034 ft 556 kts 102°
2026-05-06 14:28 31.60195 -103.70257 45026 ft 558 kts 102°
2026-05-06 14:28 31.59346 -103.61188 45028 ft 559 kts 102°
2026-05-06 14:29 31.58497 -103.52161 45027 ft 555 kts 102°
2026-05-06 14:29 31.57640 -103.43169 45013 ft 555 kts 102°
2026-05-06 14:30 31.56781 -103.34179 45013 ft 554 kts 102°
2026-05-06 14:30 31.55913 -103.25202 45012 ft 554 kts 102°
2026-05-06 14:31 31.55043 -103.16226 45012 ft 552 kts 102°
2026-05-06 14:31 31.54165 -103.07288 45007 ft 553 kts 102°
2026-05-06 14:32 31.53281 -102.98308 45010 ft 555 kts 102°
2026-05-06 14:32 31.52398 -102.89404 45009 ft 553 kts 102°
2026-05-06 14:33 31.51503 -102.80461 45008 ft 552 kts 102°
2026-05-06 14:33 31.50602 -102.71530 45006 ft 552 kts 102°
2026-05-06 14:34 31.49694 -102.62572 45006 ft 554 kts 102°
2026-05-06 14:34 31.48779 -102.53610 45010 ft 553 kts 102°
2026-05-06 14:35 31.47858 -102.44661 45010 ft 552 kts 102°
2026-05-06 14:35 31.46932 -102.35738 45033 ft 552 kts 102°
2026-05-06 14:36 31.46003 -102.26819 45041 ft 552 kts 102°
2026-05-06 14:36 31.45063 -102.17879 45041 ft 552 kts 102°
2026-05-06 14:37 31.44118 -102.08950 45042 ft 552 kts 102°
2026-05-06 14:37 31.43027 -102.00067 45039 ft 547 kts 108°
2026-05-06 14:38 31.41392 -101.91357 45041 ft 547 kts 108°
2026-05-06 14:38 31.39819 -101.82711 45042 ft 546 kts 108°
2026-05-06 14:39 31.38198 -101.74043 45041 ft 545 kts 108°
2026-05-06 14:39 31.36592 -101.65370 45034 ft 545 kts 108°
2026-05-06 14:40 31.34968 -101.56704 45036 ft 546 kts 108°
2026-05-06 14:40 31.33344 -101.48033 45038 ft 545 kts 108°
2026-05-06 14:41 31.31713 -101.39380 45036 ft 544 kts 108°
2026-05-06 14:41 31.30082 -101.30743 45035 ft 543 kts 108°
2026-05-06 14:42 31.28454 -101.22170 45034 ft 543 kts 108°
2026-05-06 14:42 31.26814 -101.13563 45034 ft 542 kts 108°
2026-05-06 14:43 31.25172 -101.04971 45033 ft 541 kts 109°
2026-05-06 14:43 31.23523 -100.96389 45033 ft 541 kts 109°
2026-05-06 14:44 31.21870 -100.87809 45025 ft 542 kts 109°
2026-05-06 14:45 31.19370 -100.74895 45026 ft 543 kts 108°
2026-05-06 14:45 31.17697 -100.66297 45028 ft 543 kts 109°
2026-05-06 14:46 31.16028 -100.57745 45016 ft 543 kts 109°
2026-05-06 14:46 31.14344 -100.49155 45017 ft 542 kts 109°
2026-05-06 14:47 31.12655 -100.40566 45017 ft 542 kts 109°
2026-05-06 14:47 31.10961 -100.31996 45016 ft 542 kts 109°
2026-05-06 14:48 31.09260 -100.23414 44422 ft 545 kts 109°
2026-05-06 14:48 31.08405 -100.19106 43705 ft 542 kts 109°
2026-05-06 14:48 31.07559 -100.14843 42993 ft 537 kts 110°
2026-05-06 14:48 31.06729 -100.10679 42281 ft 532 kts 110°
2026-05-06 14:49 31.05892 -100.06500 41576 ft 527 kts 111°
2026-05-06 14:49 31.05063 -100.02360 40880 ft 522 kts 111°
2026-05-06 14:49 31.04236 -99.98243 40188 ft 521 kts 111°
2026-05-06 14:49 31.03407 -99.94126 39497 ft 522 kts 111°
2026-05-06 14:50 31.02576 -99.89994 38800 ft 525 kts 111°
2026-05-06 14:50 31.01737 -99.85841 38101 ft 528 kts 111°
2026-05-06 14:50 31.00895 -99.81668 37397 ft 529 kts 111°
2026-05-06 14:50 31.00055 -99.77496 36689 ft 528 kts 111°
2026-05-06 14:51 30.99210 -99.73322 35980 ft 525 kts 111°
2026-05-06 14:51 30.98369 -99.69199 35283 ft 524 kts 111°
2026-05-06 14:51 30.97522 -99.65046 34586 ft 527 kts 111°
2026-05-06 14:51 30.96675 -99.60885 33878 ft 528 kts 111°
2026-05-06 14:52 30.95827 -99.56709 33177 ft 529 kts 111°
2026-05-06 14:52 30.94973 -99.52542 32478 ft 531 kts 111°
2026-05-06 14:52 30.94114 -99.48363 31762 ft 530 kts 111°
2026-05-06 14:52 30.93269 -99.44229 31068 ft 531 kts 111°
2026-05-06 14:53 30.92408 -99.40039 30354 ft 532 kts 111°
2026-05-06 14:53 30.91547 -99.35852 29645 ft 531 kts 111°
2026-05-06 14:53 30.90687 -99.31681 28940 ft 528 kts 110°
2026-05-06 14:53 30.89834 -99.27549 28243 ft 522 kts 110°
2026-05-06 14:54 30.88989 -99.23458 27558 ft 515 kts 110°
2026-05-06 14:54 30.88155 -99.19438 26882 ft 509 kts 110°
2026-05-06 14:54 30.87324 -99.15447 26210 ft 503 kts 110°
2026-05-06 14:54 30.86505 -99.11507 25548 ft 498 kts 110°
2026-05-06 14:55 30.85695 -99.07616 24888 ft 493 kts 110°
2026-05-06 14:55 30.84892 -99.03761 24237 ft 487 kts 110°
2026-05-06 14:55 30.84091 -98.99940 23584 ft 483 kts 109°
2026-05-06 14:55 30.83299 -98.96155 22951 ft 478 kts 109°
2026-05-06 14:56 30.82517 -98.92423 22319 ft 474 kts 109°
2026-05-06 14:56 30.81742 -98.88723 21691 ft 465 kts 109°
2026-05-06 14:56 30.80995 -98.85147 21091 ft 445 kts 109°
2026-05-06 14:56 30.80276 -98.81741 20512 ft 433 kts 110°
2026-05-06 14:57 30.79598 -98.78345 19936 ft 430 kts 105°
2026-05-06 14:57 30.79256 -98.74896 19468 ft 427 kts 101°
2026-05-06 14:57 30.78907 -98.71485 19135 ft 424 kts 102°
2026-05-06 14:57 30.78520 -98.68075 18777 ft 425 kts 102°
2026-05-06 14:58 30.78161 -98.64664 18411 ft 424 kts 101°
2026-05-06 14:58 30.77825 -98.61262 18045 ft 421 kts 101°
2026-05-06 14:58 30.77474 -98.57895 17681 ft 418 kts 101°
2026-05-06 14:58 30.77114 -98.54554 17321 ft 415 kts 101°
2026-05-06 14:59 30.76765 -98.51245 16955 ft 412 kts 101°
2026-05-06 14:59 30.76420 -98.47947 16599 ft 408 kts 101°
2026-05-06 14:59 30.76052 -98.44708 16241 ft 401 kts 104°
2026-05-06 14:59 30.75279 -98.41633 15891 ft 391 kts 116°
2026-05-06 15:00 30.74189 -98.38816 15567 ft 386 kts 121°
2026-05-06 15:00 30.73068 -98.35986 15229 ft 384 kts 120°
2026-05-06 15:00 30.71968 -98.33174 14894 ft 381 kts 120°
2026-05-06 15:00 30.70872 -98.30390 14564 ft 377 kts 120°
2026-05-06 15:01 30.69780 -98.27634 14238 ft 374 kts 120°
2026-05-06 15:01 30.68708 -98.24920 13918 ft 359 kts 120°
2026-05-06 15:01 30.67697 -98.22345 13613 ft 340 kts 120°
2026-05-06 15:01 30.66731 -98.19909 13323 ft 327 kts 120°
2026-05-06 15:02 30.65782 -98.17526 13042 ft 323 kts 120°
2026-05-06 15:02 30.64846 -98.15168 12758 ft 322 kts 120°
2026-05-06 15:02 30.63908 -98.12810 12485 ft 321 kts 120°
2026-05-06 15:02 30.62980 -98.10460 12207 ft 319 kts 120°
2026-05-06 15:03 30.62366 -98.08913 12019 ft 318 kts 120°
2026-05-06 15:03 30.61440 -98.06589 11746 ft 315 kts 120°
2026-05-06 15:03 30.60525 -98.04282 11473 ft 313 kts 119°
2026-05-06 15:03 30.59616 -98.01996 11198 ft 311 kts 119°
2026-05-06 15:04 30.58713 -97.99728 10930 ft 308 kts 118°
2026-05-06 15:04 30.57813 -97.97477 10652 ft 305 kts 118°
2026-05-06 15:04 30.56850 -97.95309 10391 ft 298 kts 127°
2026-05-06 15:04 30.55540 -97.93517 10132 ft 287 kts 139°
2026-05-06 15:05 30.53993 -97.92139 9886 ft 281 kts 151°
2026-05-06 15:05 30.52260 -97.91119 9643 ft 279 kts 157°
2026-05-06 15:05 30.50514 -97.90136 9399 ft 279 kts 155°
2026-05-06 15:05 30.48775 -97.89135 9152 ft 279 kts 155°
2026-05-06 15:06 30.47035 -97.88151 8915 ft 279 kts 155°
2026-05-06 15:06 30.45287 -97.87164 8675 ft 278 kts 155°
2026-05-06 15:06 30.43529 -97.86169 8434 ft 277 kts 155°
2026-05-06 15:06 30.41780 -97.85181 8184 ft 276 kts 155°
2026-05-06 15:07 30.40077 -97.84219 7948 ft 274 kts 155°
2026-05-06 15:07 30.38365 -97.83250 7710 ft 273 kts 155°
2026-05-06 15:07 30.36661 -97.82286 7473 ft 271 kts 155°
2026-05-06 15:07 30.34967 -97.81331 7240 ft 270 kts 155°
2026-05-06 15:08 30.33285 -97.80381 7008 ft 269 kts 155°
2026-05-06 15:08 30.31621 -97.79443 6773 ft 260 kts 155°
2026-05-06 15:08 30.30029 -97.78544 6554 ft 250 kts 155°
2026-05-06 15:08 30.28492 -97.77684 6339 ft 242 kts 157°
2026-05-06 15:09 30.26892 -97.77188 6125 ft 237 kts 175°
2026-05-06 15:09 30.25247 -97.77130 5920 ft 236 kts 180°
2026-05-06 15:09 30.23607 -97.77088 5713 ft 237 kts 179°
2026-05-06 15:09 30.21963 -97.77034 5507 ft 236 kts 179°
2026-05-06 15:10 30.20329 -97.76992 5296 ft 234 kts 180°
2026-05-06 15:10 30.18732 -97.76952 5109 ft 227 kts 180°
2026-05-06 15:10 30.17172 -97.76910 4982 ft 219 kts 179°
2026-05-06 15:10 30.15646 -97.76870 4818 ft 221 kts 180°
2026-05-06 15:11 30.14102 -97.76830 4550 ft 222 kts 179°
2026-05-06 15:11 30.12558 -97.76785 4263 ft 221 kts 179°
2026-05-06 15:11 30.11066 -97.76569 3973 ft 220 kts 162°
2026-05-06 15:11 30.09753 -97.75669 3692 ft 221 kts 142°
2026-05-06 15:12 30.08813 -97.74264 3406 ft 224 kts 120°
2026-05-06 15:12 30.08406 -97.72553 3112 ft 220 kts 97°
2026-05-06 15:12 30.08424 -97.70804 2834 ft 216 kts 93°
2026-05-06 15:12 30.08466 -97.69092 2550 ft 211 kts 84°
2026-05-06 15:13 30.08980 -97.67646 2302 ft 183 kts 61°
2026-05-06 15:13 30.09780 -97.66565 2087 ft 174 kts 41°
2026-05-06 15:13 30.10732 -97.65906 1899 ft 147 kts 25°
2026-05-06 15:13 30.11641 -97.65616 1704 ft 127 kts
2026-05-06 15:14 30.12494 -97.65577 1525 ft 120 kts 358°
2026-05-06 15:14 30.13322 -97.65622 1377 ft 118 kts 360°
2026-05-06 15:14 30.14142 -97.65629 1225 ft 118 kts
2026-05-06 15:14 30.14957 -97.65651 1075 ft 117 kts 360°
2026-05-06 15:15 30.15769 -97.65651 922 ft 116 kts 360°
2026-05-06 15:15 30.16575 -97.65702 780 ft 116 kts 358°
2026-05-06 15:15 30.17384 -97.65726 636 ft 116 kts
2026-05-06 15:15 30.18189 -97.65737 489 ft 112 kts 359°
2026-05-06 15:16 30.18866 -97.65751 482 ft 78 kts 359°
2026-05-06 15:16 30.19283 -97.65763 483 ft 42 kts 359°
2026-05-06 15:16 30.19433 -97.65800 479 ft 12 kts 287°
2026-05-06 15:16 30.19436 -97.65922 482 ft 18 kts 268°
2026-05-06 15:17 30.19336 -97.65975 482 ft 20 kts 178°
2026-05-06 15:17 30.19169 -97.65970 481 ft 29 kts 178°
2026-05-06 15:17 30.18948 -97.65963 485 ft 34 kts 179°
2026-05-06 15:17 30.18704 -97.65958 479 ft 36 kts 178°
2026-05-06 15:18 30.18550 -97.65954 477 ft 16 kts 189°
2026-05-06 15:18 30.18511 -97.66072 477 ft 18 kts 269°
2026-05-06 15:18 30.18509 -97.66167 479 ft 11 kts 269°
2026-05-06 15:18 30.18465 -97.66207 483 ft 0 kts 176°